Location: Whispering Pines Observatory
(39.4020°N, 104.7430°W)
Time: 19:40:09
(UTC-06:00)

MOS 1 Rocket - Visible Passes

Search period start: 30 July 2016 00:00
Search period end: 09 August 2016 00:00
Orbit: 616 x 831 km, 97.4° (Epoch: 30 July)

Date Brightness Start Highest point End Pass type
(mag) Time Alt. Az. Time Alt. Az. Time Alt. Az.
30 Jul 5.4 05:21:45 10° NNE 05:26:04 30° E 05:30:09 10° SSE visible
01 Aug 5.3 05:22:10 10° NNE 05:26:27 30° E 05:30:29 10° SSE visible
03 Aug 5.3 05:22:34 10° NNE 05:26:50 30° E 05:30:50 10° SSE visible
05 Aug 5.2 05:22:58 10° NNE 05:27:12 31° E 05:31:11 10° SSE visible
07 Aug 5.2 05:23:22 10° NNE 05:27:33 31° E 05:31:31 10° SSE visible
